Regional Weather Roundup
Issued by NWS

Home | Current Version | Previous Version | Text Only | Print | Product List | Glossary On
Versions: 1 2 3 4 5 6 7 8 9 10 11 12 13 14 15 16 17 18 19 20 21 22 23 24 25 26 27 28 29 30 31 32 33 34 35 36 37 38 39 40 41 42 43 44 45 46 47 48 49 50
000
ASCA42 TJSJ 270310
RWRPR
PUERTO RICO/U.S. VIRGIN ISLANDS HOURLY WEATHER ROUNDUP
NATIONAL WEATHER SERVICE SAN JUAN PR
1100 PM AST THU MAR 26 2015

PRZ001-004-270400-
PUERTO RICO

CITY           SKY/WX    TMP DP  RH WIND       PRES   REMARKS
SAN JUAN LMM   PTCLDY    79  70  73 E6        30.08F
PONCE          PTCLDY    73  66  78 CALM      30.03
AGUADILLA      CLEAR     73  68  83 E9        30.09R
CEIBA          PTCLDY    79  68  69 E7        30.10S
$$

PRZ006-007-270400-
U.S. VIRGIN ISLANDS

CITY           SKY/WX    TMP DP  RH WIND       PRES   REMARKS
CHRISTIANSTED  CLEAR     75  68  78 E9        30.08
$$

HOURLY WEATHER ROUNDUP FOR THE NEWS MEDIA

CITY           SKY/WX    TMP DP  RH WIND       PRES   REMARKS
ORLANDO        MOCLDY    71  63  75 W8        29.94S
NEW YORK       CLOUDY    50  46  86 N13G28    29.65R
NEWARK         RAIN      51  49  92 N12       29.66S FOG
CHICAGO        CLOUDY    34  22  61 N14       30.05R WCI  25
HARTFORD       HVY RAIN  51  51 100 SW7       29.61F FOG
BOSTON         CLOUDY    45  44  97 N9        29.67S FOG
DALLAS         CLEAR     55  32  41 N7        30.15R
PHILADELPHIA   LGT RAIN  54  52  93 N5        29.67S
LOS ANGELES    CLEAR     70  51  51 W7        30.02R
WASHINGTON DC  CLOUDY    51  44  77 NW15      29.75R



USA.gov is the U.S. government's official web portal to all federal, state and local government web resources and services.